{"data":{"norad_id":63960,"epoch":"2026-05-25T04:22:13.834848Z","epoch_age_seconds":49544,"freshness":"FRESH","line1":"1 63960U 25099J   26145.18210457  .00012396  00000+0  45906-3 0  9992","line2":"2 63960  42.9987 104.3326 0000805 260.1885  99.8876 15.27591177 59036","mean_motion":15.27591177,"eccentricity":8.05e-5,"inclination_deg":42.9987,"raan_deg":104.3326,"arg_perigee_deg":260.1885,"mean_anomaly_deg":99.8876,"bstar":0.00045906,"rev_number":5903,"period_min":94.266058987587,"perigee_km":482.46330549824,"apogee_km":483.56795107139,"semimajor_km":6861.1526282848,"source":"CELESTRAK","updated_at":"2026-05-25T13:38:20.212395Z"}}